Regional Weather Roundup
Issued by NWS Charleston, WV

Home | Current Version | Previous Version | Graphics & Text | Print | Product List | Glossary Off
Versions: 1 2 3 4 5 6 7 8 9 10 11 12 13 14 15 16 17 18 19 20 21 22 23 24 25 26 27 28 29 30 31 32 33 34 35 36 37 38 39 40 41 42 43 44 45 46 47

447
ASUS41 KRLX 080410
RWRRLX
West Virginia Regional Weather Roundup
National Weather Service Charleston WV
1100 PM EST SUN FEB 07 2016

Note: "fair" indicates few or no clouds below 12,000 feet with no
significant weather and/or obstructions to visibility.

WVZ003-080500-
Northern Panhandle of West Virginia

CITY           SKY/WX    TMP DP  RH WIND       PRES   REMARKS
WHEELING         N/A     40  22  48 S8        29.83F
$$

WVZ009-080500-
Northwest West Virginia

CITY           SKY/WX    TMP DP  RH WIND       PRES   REMARKS
PARKERSBURG      N/A     37  24  59 CALM      29.87F
$$

WVZ006-080500-
Western West Virginia

CITY           SKY/WX    TMP DP  RH WIND       PRES   REMARKS
HUNTINGTON       N/A     36  25  64 CALM      29.86F
$$

WVZ015-080500-
West Central West Virginia

CITY           SKY/WX    TMP DP  RH WIND       PRES   REMARKS
CHARLESTON       N/A     36  24  62 CALM      29.87S
$$

WVZ022-031-080500-
North Central West Virginia

CITY           SKY/WX    TMP DP  RH WIND       PRES   REMARKS
CLARKSBURG       N/A     32  24  72 CALM      29.85F
MORGANTOWN       N/A     35  22  58 CALM      29.86F
$$

WVZ025-035-042-045-080500-
Southern West Virginia

CITY           SKY/WX    TMP DP  RH WIND       PRES   REMARKS
BECKLEY          N/A     30  20  66 S5        29.86F
LOGAN            N/A     39  23  52 CALM      29.87S
BLUEFIELD        N/A     33  18  53 W6        29.86F
LEWISBURG        N/A     32  24  73 CALM      29.86F
$$

WVZ047-080500-
Northern Mountains of West Virginia

CITY           SKY/WX    TMP DP  RH WIND       PRES   REMARKS
ELKINS           N/A     24  20  84 CALM      29.87F
$$

WVZ052-080500-
Eastern Panhandle of West Virginia

CITY           SKY/WX    TMP DP  RH WIND       PRES   REMARKS
MARTINSBURG      N/A     26  21  81 CALM      29.89F
PETERSBURG       N/A     28  26  92 CALM      29.90F
$$




USA.gov is the U.S. government's official web portal to all federal, state and local government web resources and services.